User: anonymous   Login
Location: Unspecified
(0.0000°N, 0.0000°E)
Time: 00:59:04
(UTC+00:00)
Language:

Nadezhda 3 - Orbit

View from above orbital plane
View from above orbital plane
View from above satellite
View from above satellite

Ground track
Ground track

The orbit data is extracted from the following two-line orbital elements,

1 21152U 91019A   18173.49645906  .00000041  00000-0  27692-4 0  9999
2 21152  82.9272 306.7336 0040255 281.8123 146.0585 13.74232171367817
Epoch (UTC): 22 June 2018 11:54:54
Eccentricity: 0.0040255
inclination: 82.9272°
perigee height: 955 km
apogee height: 1014 km
right ascension of ascending node: 306.7336°
argument of perigee: 281.8123°
revolutions per day: 13.74232171
mean anomaly at epoch: 146.0585°
orbit number at epoch: 36781

The dashed part of the orbit path shows where the satellite is in the earth's shadow,  

DLR